IRIDIUM 44 [-]

Last updated on Wed Jun 28 2023 00:03:02 GMT+0000 (Coordinated Universal Time)

1 25078U 97077B 23178.42682353 .00000562 00000+0 17611-3 0 9997 2 25078 86.3977 165.2272 0001223 142.8656 217.2627 14.38889922340041
UTC large
Height (km)
Speed (km/s)
/
Latitude / Longitude
Inclination (degrees)
Orbital Period (minutes)
Azimuth
Elevation
Range (km)
Doppler Factor

Next 0 passes for location: London (51.5072 / 0.1276)

Sorry there are no passes over London.